Regional Weather Roundup
Issued by NWS

Home | Current Version | Previous Version | Graphics & Text | Print | Product List | Glossary On
Versions: 1 2 3 4 5 6 7 8 9 10 11 12 13 14 15 16 17 18 19 20 21 22 23 24 25 26 27 28 29 30 31 32 33 34 35 36 37 38 39 40 41 42 43 44 45 46 47 48 49 50
000
ASUS43 KLSX 261759
RWRMO

WEATHER SUMMARY FOR MISSOURI
NATIONAL WEATHER SERVICE SPRINGFIELD MO
100 PM CDT THU MAR 26 2015

NOTE: "FAIR" INDICATES FEW OR NO CLOUDS BELOW 12,000 FEET WITH NO
       SIGNIFICANT WEATHER AND/OR OBSTRUCTIONS TO VISIBILITY.
       CURRENT SKY AND/OR WEATHER CONDITIONS ARE NOT AVAILABLE FOR
       CHILLICOTHE AND FARMINGTON.

MOZ001>031-035>038-043-044-053-054-261900-
...NORTHERN AND WESTERN MISSOURI...

CITY           SKY/WX    TMP DP  RH WIND       PRES   REMARKS
KANSAS CTY INT MOSUNNY   47  30  51 N20       30.17F
6HR MIN TEMP:  30; 6HR MAX TEMP:  47;

KANSAS C DTWN  SUNNY     48  27  44 NW8       30.17F
6HR MIN TEMP:  35; 6HR MAX TEMP:  49;

LEE`S SUMMIT   SUNNY     46  25  43 N13G21    30.17F
6HR MIN TEMP:  34; 6HR MAX TEMP:  46;

ST JOSEPH      MOSUNNY   46  28  49 NW13      30.19F
6HR MIN TEMP:  28; 6HR MAX TEMP:  46;

CHILLICOTHE      N/A     46  28  49 NW10G18   30.16F
6HR MIN TEMP:  32; 6HR MAX TEMP:  47;

KIRKSVILLE     SUNNY     46  25  43 NW15      30.11F
6HR MIN TEMP:  31; 6HR MAX TEMP:  46;


$$
MOZ066>068-077>081-088>096-101>105-261900-
...SOUTHWEST MISSOURI...

CITY           SKY/WX    TMP DP  RH WIND       PRES   REMARKS
SPRINGFIELD    SUNNY     47  30  51 NW16      30.12S
6HR MIN TEMP:  40; 6HR MAX TEMP:  48;

JOPLIN         MOSUNNY   49  33  54 N12G21    30.18S
6HR MIN TEMP:  40; 6HR MAX TEMP:  49;


$$
MOZ032>034-039>042-045>050-055>058-069>072-261900-
...CENTRAL MISSOURI...

CITY           SKY/WX    TMP DP  RH WIND       PRES   REMARKS
COLUMBIA       SUNNY     45  29  53 NW8G18    30.11F
6HR MIN TEMP:  36; 6HR MAX TEMP:  45;

JEFFERSON CITY MOSUNNY   45  27  49 NW12G17   30.12F
6HR MIN TEMP:  38; 6HR MAX TEMP:  45;

ROLLA          PTSUNNY   43  32  65 MISG      30.08F
6HR MIN TEMP:  37; 6HR MAX TEMP:  43;

SEDALIA        SUNNY     47  31  53 N13       30.15F
6HR MIN TEMP:  37; 6HR MAX TEMP:  47;

OSAGE BEACH    SUNNY     45  27  49 NW9G16    30.12F

$$
MOZ051-052-059>065-261900-
...EAST CENTRAL MISSOURI...

CITY           SKY/WX    TMP DP  RH WIND       PRES   REMARKS
ST LOUIS INTL  CLOUDY    43  29  57 NW8       30.08F
6HR MIN TEMP:  39; 6HR MAX TEMP:  43; 6HR PCP: TRACE;

SPIRIT OF STL  CLOUDY    42  27  55 N10       30.09F
6HR MIN TEMP:  38; 6HR MAX TEMP:  42;

ST CHARLES     CLOUDY    43  30  60 NW10      30.08F
6HR MIN TEMP:  38; 6HR MAX TEMP:  43; 6HR PCP: TRACE;


$$
MOZ072>076-082>087-097>100-106>115-261900-
...SOUTH CENTRAL AND SOUTHEAST MISSOURI...

CITY           SKY/WX    TMP DP  RH WIND       PRES   REMARKS
CAPE GIRARDEAU CLOUDY    41  38  89 N14       30.05R
6HR MIN TEMP:  41; 6HR MAX TEMP:  46; 6HR PCP:  0.03;

FARMINGTON     CLOUDY    39  30  70 N13       30.08S
6HR MIN TEMP:  37; 6HR MAX TEMP:  41;

POPLAR BLUFF   LGT RAIN  43  38  82 N14       30.03F
6HR MIN TEMP:  43; 6HR MAX TEMP:  48; 6HR PCP:  0.09;

WEST PLAINS    PTSUNNY   45  34  65 MISG      30.07S
6HR MIN TEMP:  39; 6HR MAX TEMP:  46; 6HR PCP:  0.10;


$$


USA.gov is the U.S. government's official web portal to all federal, state and local government web resources and services.